MAS70 WMKK-RJAA

Flight info

Callsign MAS70
Flight time N/A
Altitude 37000
Route KIMAT1D KIMAT Y344 VPK L629 DOLOX M771 DUDIS/K0878F370 M771 DAGAG M765 ALDAS L625 ANOKI/N0470F370 L625 MEVIN B462 KAZIK Y59 AZAMA Y57 YULIA Y89 GUPER Y81 RUTAS
Aircraft A339/H-SADE1E2E3GHIJ3J5M1P2RWXY/LB2D1

Departure

Time 2026-05-04 08:50
Airport Kuala Lumpur International Airport (WMKK)

Arrival

Time N/A
Airport Narita International Airport (RJAA)
Time Latitude Longitude Altitude Speed Heading
2026-05-04 08:28 2.74580 101.71434 57 ft 0 kts 56°
2026-05-04 08:35 2.74543 101.71352 56 ft 2 kts 136°
2026-05-04 08:35 2.74552 101.71343 54 ft 2 kts 161°
2026-05-04 08:35 2.74561 101.71340 54 ft 0 kts 144°
2026-05-04 08:37 2.74532 101.71361 54 ft 4 kts 145°
2026-05-04 08:37 2.74505 101.71379 56 ft 5 kts 145°
2026-05-04 08:37 2.74474 101.71401 59 ft 6 kts 145°
2026-05-04 08:38 2.74437 101.71425 56 ft 7 kts 147°
2026-05-04 08:38 2.74392 101.71455 55 ft 9 kts 145°
2026-05-04 08:38 2.74333 101.71453 55 ft 9 kts 212°
2026-05-04 08:40 2.73885 101.70789 60 ft 22 kts 236°
2026-05-04 08:40 2.73797 101.70665 59 ft 19 kts 235°
2026-05-04 08:40 2.73737 101.70580 56 ft 12 kts 230°
2026-05-04 08:41 2.73669 101.70582 58 ft 10 kts 140°
2026-05-04 08:41 2.73603 101.70629 57 ft 15 kts 144°
2026-05-04 08:41 2.73518 101.70690 61 ft 15 kts 144°
2026-05-04 08:41 2.73415 101.70753 56 ft 20 kts 148°
2026-05-04 08:42 2.73300 101.70829 60 ft 20 kts 144°
2026-05-04 08:42 2.73189 101.70907 57 ft 19 kts 145°
2026-05-04 08:42 2.73078 101.70981 58 ft 19 kts 145°
2026-05-04 08:42 2.72962 101.71059 54 ft 22 kts 145°
2026-05-04 08:43 2.72836 101.71144 57 ft 22 kts 147°
2026-05-04 08:43 2.72710 101.71220 55 ft 21 kts 149°
2026-05-04 08:43 2.72590 101.71301 56 ft 20 kts 145°
2026-05-04 08:43 2.72492 101.71371 55 ft 13 kts 144°
2026-05-04 08:44 2.72427 101.71417 57 ft 11 kts 144°
2026-05-04 08:44 2.72358 101.71457 59 ft 11 kts 166°
2026-05-04 08:46 2.71802 101.71723 55 ft 18 kts 146°
2026-05-04 08:46 2.71695 101.71797 56 ft 20 kts 145°
2026-05-04 08:46 2.71581 101.71870 54 ft 19 kts 148°
2026-05-04 08:46 2.71497 101.71928 55 ft 10 kts 144°
2026-05-04 08:47 2.71435 101.71937 63 ft 9 kts 199°
2026-05-04 08:47 2.71395 101.71890 58 ft 9 kts 236°
2026-05-04 08:47 2.71361 101.71840 57 ft 9 kts 236°
2026-05-04 08:47 2.71357 101.71791 57 ft 6 kts 300°
2026-05-04 08:48 2.71391 101.71768 57 ft 6 kts 326°
2026-05-04 08:48 2.71419 101.71748 58 ft 0 kts 326°
2026-05-04 08:48 2.71422 101.71747 57 ft 3 kts 326°
2026-05-04 08:48 2.71582 101.71638 57 ft 60 kts 326°
2026-05-04 08:49 2.72109 101.71285 55 ft 120 kts 326°
2026-05-04 08:50 2.77814 101.66688 2034 ft 199 kts 306°
2026-05-04 08:50 2.78698 101.65540 2217 ft 219 kts 307°
2026-05-04 08:51 2.79697 101.64275 2305 ft 245 kts 308°
2026-05-04 08:51 2.80802 101.62906 2610 ft 257 kts 309°
2026-05-04 08:51 2.81955 101.61507 3084 ft 262 kts 310°
2026-05-04 08:51 2.83174 101.60141 3593 ft 265 kts 315°
2026-05-04 08:52 2.84536 101.58891 4155 ft 267 kts 320°
2026-05-04 08:52 2.86016 101.57776 4771 ft 266 kts 326°
2026-05-04 08:52 2.87742 101.57079 5199 ft 272 kts 351°
2026-05-04 08:52 2.89607 101.57220 5818 ft 272 kts 16°
2026-05-04 08:53 2.91259 101.58159 6284 ft 278 kts 42°
2026-05-04 08:54 2.95359 101.71430 9852 ft 296 kts 71°
2026-05-04 08:55 2.96010 101.73394 10268 ft 301 kts 71°
2026-05-04 08:55 2.96686 101.75432 10402 ft 317 kts 71°
2026-05-04 08:55 2.97392 101.77571 10538 ft 331 kts 71°
2026-05-04 08:55 2.98117 101.79775 10711 ft 343 kts 71°
2026-05-04 08:57 3.03419 101.95945 13832 ft 356 kts 72°
2026-05-04 09:01 3.14642 102.30236 18791 ft 385 kts 72°
2026-05-04 09:01 3.15475 102.32783 19110 ft 387 kts 72°
2026-05-04 09:01 3.16257 102.35370 19396 ft 388 kts 76°
2026-05-04 09:01 3.16857 102.38006 19710 ft 390 kts 79°
2026-05-04 09:02 3.17405 102.40671 20011 ft 392 kts 79°
2026-05-04 09:02 3.17965 102.43341 20336 ft 393 kts 79°
2026-05-04 09:02 3.18533 102.46028 20635 ft 395 kts 78°
2026-05-04 09:02 3.19104 102.48723 20938 ft 397 kts 78°
2026-05-04 09:03 3.19678 102.51433 21247 ft 399 kts 79°
2026-05-04 09:03 3.20253 102.54155 21551 ft 401 kts 79°
2026-05-04 09:03 3.20832 102.56896 21864 ft 403 kts 79°
2026-05-04 09:03 3.21413 102.59643 22168 ft 405 kts 79°
2026-05-04 09:04 3.21996 102.62407 22478 ft 407 kts 79°
2026-05-04 09:04 3.22584 102.65188 22772 ft 409 kts 79°
2026-05-04 09:04 3.23173 102.67980 23100 ft 411 kts 79°
2026-05-04 09:04 3.23765 102.70786 23406 ft 413 kts 79°
2026-05-04 09:05 3.24361 102.73608 23689 ft 415 kts 79°
2026-05-04 09:05 3.24950 102.76397 23957 ft 417 kts 79°
2026-05-04 09:05 3.25550 102.79245 24251 ft 417 kts 78°
2026-05-04 09:05 3.26151 102.82092 24504 ft 419 kts 78°
2026-05-04 09:06 3.26755 102.84954 24754 ft 421 kts 78°
2026-05-04 09:07 3.31052 103.05332 26533 ft 434 kts 78°
2026-05-04 09:08 3.31675 103.08291 26777 ft 436 kts 78°
2026-05-04 09:08 3.32302 103.11267 27019 ft 437 kts 78°
2026-05-04 09:08 3.32931 103.14250 27258 ft 439 kts 79°
2026-05-04 09:08 3.33564 103.17251 27450 ft 442 kts 79°
2026-05-04 09:09 3.34200 103.20270 27696 ft 444 kts 79°
2026-05-04 09:09 3.34837 103.23295 27909 ft 446 kts 79°
2026-05-04 09:09 3.35476 103.26334 28155 ft 447 kts 79°
2026-05-04 09:09 3.36119 103.29390 28382 ft 449 kts 79°
2026-05-04 09:10 3.36765 103.32458 28610 ft 451 kts 79°
2026-05-04 09:10 3.37403 103.35488 28839 ft 452 kts 79°
2026-05-04 09:10 3.38215 103.38586 29039 ft 455 kts 73°
2026-05-04 09:10 3.39320 103.41552 29270 ft 457 kts 68°
2026-05-04 09:11 3.40697 103.44387 29472 ft 460 kts 62°
2026-05-04 09:11 3.42368 103.47134 29701 ft 462 kts 57°
2026-05-04 09:11 3.44247 103.49755 29913 ft 465 kts 55°
2026-05-04 09:11 3.46141 103.52393 30053 ft 468 kts 56°
2026-05-04 09:12 3.47400 103.54151 30265 ft 465 kts 55°
2026-05-04 09:12 3.49933 103.57700 30413 ft 471 kts 56°
2026-05-04 09:14 3.62689 103.75624 31872 ft 479 kts 54°
2026-05-04 09:14 3.64650 103.78319 32089 ft 480 kts 54°
2026-05-04 09:14 3.66622 103.81019 32286 ft 481 kts 54°
2026-05-04 09:14 3.68597 103.83727 32446 ft 482 kts 54°
2026-05-04 09:15 3.70573 103.86441 32600 ft 483 kts 54°
2026-05-04 09:15 3.74544 103.91905 32819 ft 486 kts 54°
2026-05-04 09:15 3.76533 103.94644 32948 ft 487 kts 54°
2026-05-04 09:17 3.92526 104.16634 33799 ft 488 kts 54°
2026-05-04 09:18 3.96534 104.22112 33994 ft 487 kts 54°
2026-05-04 09:18 4.00546 104.27603 34130 ft 488 kts 54°
2026-05-04 09:19 4.02552 104.30349 34231 ft 488 kts 54°
2026-05-04 09:19 4.04556 104.33093 34346 ft 487 kts 54°
2026-05-04 09:19 4.06553 104.35828 34453 ft 487 kts 54°
2026-05-04 09:19 4.08528 104.38532 34559 ft 486 kts 54°
2026-05-04 09:20 4.10521 104.41262 34674 ft 486 kts 54°
2026-05-04 09:20 4.12516 104.43994 34769 ft 485 kts 54°
2026-05-04 09:20 4.16493 104.49442 34845 ft 484 kts 54°
2026-05-04 09:21 4.20464 104.54884 34847 ft 484 kts 54°
2026-05-04 09:21 4.24437 104.60328 34847 ft 484 kts 54°
2026-05-04 09:22 4.28411 104.65774 34849 ft 484 kts 54°
2026-05-04 09:22 4.32383 104.71221 34846 ft 484 kts 54°
2026-05-04 09:23 4.36352 104.76664 34851 ft 484 kts 54°
2026-05-04 09:23 4.40329 104.82116 34852 ft 484 kts 54°
2026-05-04 09:25 4.54690 105.00763 34844 ft 485 kts 39°
2026-05-04 09:25 4.57404 105.02779 34850 ft 486 kts 37°
2026-05-04 09:26 4.62917 105.06704 34851 ft 485 kts 37°
2026-05-04 09:26 4.68401 105.10671 34849 ft 486 kts 37°
2026-05-04 09:27 4.73862 105.14664 34850 ft 486 kts 37°
2026-05-04 09:27 4.79284 105.18634 34851 ft 485 kts 37°
2026-05-04 09:28 4.84731 105.22623 34850 ft 485 kts 37°
2026-05-04 09:28 4.90189 105.26620 34850 ft 485 kts 37°
2026-05-04 09:29 4.95643 105.30616 34852 ft 486 kts 37°
2026-05-04 09:29 5.01102 105.34615 34851 ft 486 kts 37°
2026-05-04 09:30 5.06568 105.38620 34856 ft 486 kts 37°
2026-05-04 09:30 5.12030 105.42624 34853 ft 486 kts 37°
2026-05-04 09:31 5.17489 105.46626 34854 ft 485 kts 37°
2026-05-04 09:31 5.22939 105.50623 34852 ft 486 kts 37°
2026-05-04 09:32 5.28395 105.54624 34852 ft 486 kts 37°
2026-05-04 09:34 5.50164 105.70599 34855 ft 485 kts 37°
2026-05-04 09:34 5.55606 105.74596 34854 ft 484 kts 37°
2026-05-04 09:35 5.61044 105.78589 34854 ft 485 kts 37°
2026-05-04 09:35 5.66491 105.82591 34852 ft 485 kts 37°
2026-05-04 09:37 5.88223 105.98565 34856 ft 483 kts 37°
2026-05-04 09:38 5.93648 106.02555 34854 ft 483 kts 37°
2026-05-04 09:38 5.99067 106.06542 34857 ft 483 kts 37°
2026-05-04 09:39 6.04490 106.10533 34855 ft 483 kts 37°
2026-05-04 09:39 6.09914 106.14525 34857 ft 483 kts 37°
2026-05-04 09:40 6.15337 106.18518 34859 ft 483 kts 37°
2026-05-04 09:40 6.20760 106.22512 34857 ft 483 kts 37°
2026-05-04 09:42 6.42379 106.38443 34864 ft 481 kts 37°
2026-05-04 09:43 6.47765 106.42423 35001 ft 478 kts 37°
2026-05-04 09:43 6.50457 106.44407 34852 ft 480 kts 37°
2026-05-04 09:43 6.53154 106.46394 34856 ft 481 kts 37°
2026-05-04 09:44 6.58548 106.50371 34862 ft 480 kts 37°
2026-05-04 09:46 6.80059 106.66253 34865 ft 480 kts 37°
2026-05-04 09:46 6.85446 106.70233 34867 ft 480 kts 37°
2026-05-04 09:47 6.90830 106.74212 34864 ft 480 kts 37°
2026-05-04 09:49 7.12809 106.89437 34866 ft 481 kts 34°
2026-05-04 09:51 7.32402 107.02321 34867 ft 480 kts 34°
2026-05-04 09:51 7.37989 107.06002 34865 ft 480 kts 34°
2026-05-04 09:52 7.43581 107.09688 34862 ft 480 kts 34°
2026-05-04 09:52 7.49167 107.13371 34864 ft 480 kts 34°
2026-05-04 09:53 7.54729 107.17039 34864 ft 480 kts 34°
2026-05-04 09:53 7.60321 107.20729 34864 ft 480 kts 34°
2026-05-04 09:54 7.65909 107.24416 34866 ft 480 kts 34°
2026-05-04 09:54 7.71495 107.28103 34866 ft 480 kts 34°
2026-05-04 09:55 7.77089 107.31797 34864 ft 480 kts 34°
2026-05-04 09:55 7.82674 107.35486 34867 ft 480 kts 34°
2026-05-04 09:56 7.88264 107.39180 34866 ft 480 kts 34°
2026-05-04 09:56 7.93844 107.42868 34864 ft 479 kts 34°
2026-05-04 09:57 7.99415 107.46552 34869 ft 479 kts 34°
2026-05-04 09:57 8.04996 107.50243 34865 ft 479 kts 34°
2026-05-04 09:58 8.09628 107.53307 34864 ft 479 kts 34°
2026-05-04 09:58 8.15204 107.56998 34863 ft 479 kts 34°
2026-05-04 10:00 8.37475 107.71749 34867 ft 479 kts 34°
2026-05-04 10:04 8.76423 107.97596 34864 ft 479 kts 34°
2026-05-04 10:04 8.81991 108.01297 34867 ft 479 kts 35°
2026-05-04 10:05 8.87564 108.05002 34865 ft 479 kts 34°
2026-05-04 10:05 8.93088 108.08676 34863 ft 479 kts 34°
2026-05-04 10:06 8.98659 108.12383 34864 ft 479 kts 34°
2026-05-04 10:06 9.04223 108.16086 34861 ft 478 kts 34°
2026-05-04 10:08 9.23685 108.29051 34868 ft 479 kts 34°
2026-05-04 10:08 9.29241 108.32756 34874 ft 479 kts 34°
2026-05-04 10:09 9.34801 108.36464 34869 ft 479 kts 34°
2026-05-04 10:09 9.40364 108.40176 34869 ft 479 kts 34°
2026-05-04 10:10 9.45353 108.44573 34869 ft 475 kts 51°
2026-05-04 10:10 9.48788 108.50194 34876 ft 472 kts 68°
2026-05-04 10:11 9.51235 108.56375 34883 ft 472 kts 68°
2026-05-04 10:11 9.53708 108.62545 34870 ft 473 kts 68°
2026-05-04 10:12 9.56347 108.68645 34868 ft 473 kts 60°
2026-05-04 10:12 9.59876 108.74292 34869 ft 473 kts 58°
2026-05-04 10:13 9.63413 108.79933 34875 ft 473 kts 58°
2026-05-04 10:13 9.66937 108.85556 34871 ft 472 kts 58°
2026-05-04 10:14 9.70471 108.91197 34864 ft 473 kts 58°
2026-05-04 10:16 9.84587 109.13774 34874 ft 474 kts 58°
2026-05-04 10:16 9.88114 109.19420 34877 ft 473 kts 58°
2026-05-04 10:17 9.91636 109.25062 34879 ft 473 kts 58°
2026-05-04 10:19 10.05735 109.47674 34881 ft 477 kts 58°
2026-05-04 10:19 10.09279 109.53366 34881 ft 477 kts 58°
2026-05-04 10:20 10.12819 109.59053 34883 ft 478 kts 58°
2026-05-04 10:20 10.16366 109.64754 34878 ft 478 kts 58°
2026-05-04 10:21 10.19917 109.70465 34885 ft 479 kts 58°
2026-05-04 10:21 10.23465 109.76174 34882 ft 478 kts 58°
2026-05-04 10:22 10.28750 109.84685 34884 ft 475 kts 58°
2026-05-04 10:23 10.32282 109.90373 34886 ft 477 kts 58°
2026-05-04 10:25 10.46484 110.13281 34888 ft 479 kts 58°
2026-05-04 10:25 10.50036 110.19018 34888 ft 481 kts 58°
2026-05-04 10:26 10.53601 110.24780 34887 ft 481 kts 58°
2026-05-04 10:26 10.57161 110.30536 34890 ft 481 kts 58°
2026-05-04 10:27 10.60719 110.36292 34897 ft 481 kts 58°
2026-05-04 10:27 10.64278 110.42050 34895 ft 481 kts 58°
2026-05-04 10:28 10.67831 110.47806 34892 ft 481 kts 57°